Snowfall_Accumulation
0.0 0.0 0.0 0.0 0.0 0.0 0.0 0.0 0.0 0.0 0.0 0.0 0.0 0.0 0.0 0.0 0.0 0.0 0.0 0.0 0.0 0.0 0.0 0.0 0.0 0.0 0.0 0.0 0.0 0.0 0.3 0.0 0.0 0.6 0.9 0.0 0.1 0.0 0.0 0.0 0.0 0.0 0.2 0.2 0.8 1.7 0.0 0.0 0.0 0.0 0.0 0.0 0.0 0.0
0.0 0.0 0.0 0.0 0.0 0.0 0.0 0.0 0.0 0.0 0.0 0.0 0.0 0.0 0.0 0.0 0.0 0.0 0.0 0.0 0.0 0.0 0.0 0.0 0.0 0.0 0.0 0.0 0.0 0.0 0.0 1.6 1.2 1.2 0.4 0.0 0.0 0.0 0.0 0.1 0.0 0.0 0.0 0.0 0.0 0.0 0.0 0.0 0.0 0.0 0.0 0.0 0.0 0.0
0.0 0.0 0.0 0.0 0.0 0.0 0.0 0.0 0.0 0.0 0.0 0.0 0.0 0.0 0.0 0.0 0.0 0.0 0.0 0.0 0.0 0.4 0.0 0.0 0.0 0.0 0.0 0.0 0.0 0.0 0.0 0.0 1.5 0.6 0.6 0.3 0.1 0.0 0.0 0.0 0.0 0.0 0.0 0.0 0.0 0.0 0.0 0.0 0.0 0.0 0.0 0.0 0.0 0.0
0.0 0.0 0.0 0.0 0.0 0.0 0.0 0.0 0.0 0.0 0.0 0.0 0.0 0.0 0.0 0.0 0.0 0.0 0.0 0.0 0.0 0.0 1.7 0.0 0.0 0.0 0.0 0.0 0.0 0.0 0.0 0.0 0.0 0.0 0.4 0.8 0.7 0.0 0.0 0.0 0.0 0.0 0.0 0.0 0.0 0.0 0.0 0.0 0.0 0.0 0.0 0.0 0.0 0.0
0.0 0.0 0.0 0.0 0.0 0.0 0.0 0.0 0.0 0.0 0.0 0.0 0.0 0.0 0.0 0.0 0.0 0.0 0.0 0.0 0.0 0.0 2.8 1.1 0.0 0.0 0.0 0.0 0.0 0.0 0.0 0.0 1.0 0.7 0.6 0.1 0.0 0.0 0.0 0.0 0.0 0.0 0.0 0.0 0.0 0.0 0.0 0.0 0.0 0.0 0.0 0.0 0.0 0.0
0.0 0.0 0.0 0.0 0.0 0.0 0.0 0.0 0.0 0.0 0.0 0.0 0.0 0.0 0.0 0.0 0.0 0.0 0.0 0.0 0.0 0.0 3.5 4.5 0.0 0.0 0.0 0.0 0.0 0.0 0.0 0.8 0.0 1.9 0.0 0.0 0.0 0.0 0.0 0.0 0.0 0.0 0.0 0.0 0.0 0.0 0.0 0.0 0.0 0.0 0.0 0.0 0.0 0.0
0.0 0.0 0.0 0.0 0.0 0.0 0.0 0.0 0.0 0.0 0.0 0.0 0.0 0.0 0.0 0.0 0.0 0.0 0.2 0.0 0.0 0.0 4.5 5.7 3.6 0.0 0.0 0.0 0.0 0.0 0.0 0.0 0.0 2.5 1.2 0.0 1.0 0.0 1.5 0.2 0.0 0.0 0.0 0.0 0.0 0.0 0.0 0.0 0.0 0.0 0.0 0.0 0.0 0.0
0.0 0.0 0.0 0.0 0.0 0.0 0.0 0.0 0.0 0.0 0.0 0.0 0.0 0.0 0.0 0.0 0.0 0.0 0.0 0.0 0.0 0.0 4.5 6.4 7.8 1.4 0.0 0.0 0.5 0.0 0.2 0.0 0.1 0.4 0.0 0.0 0.0 0.0 0.5 0.0 0.0 0.0 0.0 0.0 0.0 0.0 0.0 0.0 0.0 0.0 0.0 0.0 0.0 0.0
0.0 0.0 0.0 0.0 0.0 0.0 0.0 0.0 0.0 0.0 0.0 0.0 0.0 0.0 0.0 0.0 0.0 0.0 0.0 0.0 0.0 0.0 3.3 3.4 3.6 4.4 0.0 0.0 0.0 0.0 0.0 3.1 0.0 0.0 2.8 0.2 0.5 0.8 0.0 0.0 0.0 0.0 0.0 0.0 0.0 0.0 0.0 0.0 0.0 0.0 0.0 0.0 0.0 0.0
0.0 0.0 0.0 0.0 0.0 0.0 0.0 0.0 0.0 0.0 0.0 0.0 0.0 0.0 0.0 0.0 0.0 0.0 0.0 1.0 1.9 1.9 1.9 1.5 1.6 1.5 0.0 0.1 1.2 0.1 0.1 0.4 2.1 0.0 0.0 0.9 0.0 0.0 0.0 0.0 0.0 0.0 0.0 0.0 0.0 0.0 0.0 0.0 0.0 0.0 0.0 0.0 0.0 0.0
0.0 0.0 0.0 0.0 0.0 0.0 0.0 0.0 0.0 0.0 0.0 0.0 0.1 1.4 0.0 0.0 0.0 0.0 2.3 1.6 1.3 1.3 0.7 0.7 1.5 1.9 0.0 2.2 2.4 1.2 3.7 1.1 1.6 0.2 0.6 2.8 0.9 0.0 0.0 0.0 0.0 0.0 0.0 0.0 0.0 0.0 0.0 0.0 0.0 0.0 0.0 0.0 0.0 0.0
0.0 0.0 0.0 0.0 0.0 0.0 0.0 0.0 0.0 0.0 5.3 0.0 0.0 3.7 3.9 2.4 4.6 10.3 4.9 0.9 0.6 0.2 1.0 1.4 0.2 0.0 0.2 0.0 0.7 1.0 2.7 2.8 1.2 0.0 1.9 0.3 0.0 0.0 0.0 0.0 0.0 0.0 0.0 0.0 0.0 0.0 0.1 0.1 0.0 0.1 1.4 1.0 0.1 0.6
0.0 0.0 0.0 0.0 0.0 0.0 0.0 0.0 0.0 0.0 0.0 0.0 5.3 9.2 8.3 8.5 10.8 5.3 2.6 1.1 1.1 1.1 1.3 0.9 0.6 0.1 0.0 0.0 0.7 1.4 2.1 1.0 0.0 0.8 0.1 0.0 0.0 0.0 0.0 0.0 0.0 0.0 0.0 0.0 1.2 1.5 1.2 0.2 0.0 0.4 0.7 1.0 0.7 0.3
0.0 0.0 0.0 0.0 0.0 0.0 0.0 0.0 0.0 0.0 6.0 9.4 14.9 13.5 7.1 5.0 2.1 1.1 0.6 0.9 0.4 0.4 0.2 0.6 0.7 0.7 0.0 1.3 0.6 1.5 0.0 0.6 1.0 0.4 0.0 0.0 0.0 0.1 0.0 0.2 0.1 0.0 0.0 0.0 0.0 0.2 0.6 1.0 1.0 0.9 1.0 0.5 0.2 0.6
0.0 0.0 0.0 0.0 0.0 0.0 0.0 0.0 0.0 2.9 11.2 12.4 9.9 6.5 2.6 2.0 0.9 0.9 0.9 0.4 0.1 0.3 0.2 0.1 0.3 0.4 1.0 1.6 1.2 1.2 1.3 0.1 0.0 0.0 0.0 0.1 0.3 0.3 0.1 0.3 0.0 0.0 0.0 0.1 0.0 0.4 1.8 0.1 0.0 0.0 0.1 0.0 0.0 0.1
0.0 0.0 0.0 0.0 0.0 0.0 0.0 0.0 4.0 2.0 9.7 10.4 7.0 3.6 1.4 0.1 0.1 0.4 0.5 0.5 0.0 0.0 0.0 0.9 1.6 1.4 1.0 1.5 1.8 0.3 1.0 0.0 0.3 0.6 0.9 1.1 0.9 0.4 0.0 0.0 0.0 0.0 0.0 0.4 1.5 3.0 1.5 0.0 0.0 0.0 0.0 0.1 0.0 0.0
0.0 0.0 0.0 0.0 0.0 0.0 0.0 2.8 4.7 13.1 14.6 13.0 4.3 1.1 0.9 0.1 0.0 0.2 0.1 0.0 0.0 0.6 2.2 4.0 4.4 0.9 0.2 2.1 0.1 0.0 0.3 0.3 0.8 1.0 0.7 0.4 0.0 0.0 0.0 0.0 0.0 0.0 0.3 0.1 0.1 1.5 1.5 0.9 0.3 0.1 0.0 0.0 0.0 0.0
0.0 0.0 0.0 0.0 0.0 0.0 0.7 3.2 11.7 14.5 12.2 6.2 1.4 0.4 0.1 0.0 0.0 0.2 0.0 0.0 0.0 0.9 1.4 4.3 2.1 2.2 0.8 0.1 0.0 0.0 0.1 0.0 0.1 0.0 0.0 0.0 0.0 0.0 0.0 0.0 0.0 0.0 0.0 0.1 0.2 0.6 0.4 0.2 0.1 0.2 0.3 0.4 0.4 0.3
0.0 0.0 0.0 0.0 0.0 0.8 20.2 18.9 11.4 8.2 4.4 1.6 0.4 0.0 0.1 0.1 0.0 0.0 0.2 0.0 0.6 0.1 2.5 2.5 1.9 0.6 0.0 0.0 0.0 0.0 0.0 0.0 0.0 0.0 0.0 0.0 0.0 0.0 0.0 0.0 0.0 0.0 0.0 0.0 0.0 0.0 0.0 0.0 0.0 0.0 0.0 0.0 0.0 0.1
0.0 0.0 0.0 0.0 0.0 12.1 12.9 13.9 7.1 4.0 1.9 1.0 0.7 0.6 0.3 0.1 0.4 0.1 0.0 0.3 0.9 1.7 3.4 2.6 0.0 0.0 0.2 0.2 0.3 0.0 0.0 0.0 0.0 0.0 0.0 0.0 0.0 0.0 0.0 0.0 0.0 0.0 0.0 0.0 0.0 0.0 0.0 0.0 0.0 0.0 0.0 0.0 0.0 0.0
0.0 0.0 0.0 0.0 7.3 17.8 9.5 6.0 3.3 3.7 2.5 1.1 1.4 1.7 1.5 0.8 1.3 2.0 1.9 2.3 4.8 5.6 3.0 1.4 0.2 0.4 0.0 0.4 0.2 0.0 0.0 0.0 0.0 0.0 0.0 0.0 0.0 0.0 0.0 0.0 0.0 0.0 0.0 0.0 0.0 0.0 0.0 0.0 0.0 0.0 0.0 0.0 0.0 0.0
0.8 0.0 12.2 2.2 26.2 20.5 11.0 6.4 2.4 2.0 2.1 1.8 1.6 2.0 2.4 2.5 2.6 4.0 6.0 7.2 6.7 3.3 1.5 0.6 0.9 0.6 0.1 0.5 0.5 0.3 0.1 0.0 0.0 0.0 0.0 0.0 0.0 0.0 0.0 0.0 0.0 0.0 0.0 0.0 0.0 0.0 0.0 0.0 0.0 0.0 0.0 0.0 0.0 0.0
0.5 8.3 24.7 22.6 20.9 16.8 13.3 5.3 3.5 3.1 2.6 2.8 2.5 2.5 3.3 3.3 3.8 4.7 6.6 6.1 3.8 2.1 1.7 1.6 1.7 1.4 1.1 0.7 0.6 0.4 0.3 0.1 0.0 0.0 0.0 0.0 0.0 0.0 0.0 0.0 0.0 0.0 0.0 0.0 0.0 0.0 0.0 0.0 0.0 0.0 0.0 0.0 0.0 0.0
0.1 29.0 26.8 21.9 15.8 12.7 9.6 6.9 4.5 2.6 2.9 3.1 3.1 3.3 3.1 3.2 4.5 4.7 4.0 1.5 1.3 2.0 2.6 2.8 2.4 1.5 1.0 1.2 1.2 1.2 0.9 0.5 0.2 0.0 0.4 0.1 0.0 0.0 0.0 0.0 0.0 0.0 0.0 0.0 0.0 0.0 0.0 0.0 0.1 0.1 0.0 0.0 0.0 0.0
33.8 35.2 23.8 20.2 11.7 4.8 3.4 3.0 2.5 1.3 1.4 1.5 2.3 3.0 3.4 3.4 4.0 3.4 1.4 1.2 1.8 2.5 3.0 2.6 2.1 1.7 1.1 0.8 1.2 1.0 1.4 1.4 1.3 0.3 1.3 1.1 0.3 0.0 0.0 0.0 0.0 0.0 0.0 0.0 0.0 0.0 0.1 0.0 0.3 0.2 0.1 0.0 0.0 0.0
24.7 20.1 12.6 6.5 3.8 0.7 0.9 0.6 0.6 0.8 0.9 1.3 2.5 2.6 3.1 3.1 3.0 2.3 1.0 0.9 2.4 3.4 3.5 3.1 2.1 1.6 1.5 1.4 1.2 1.4 1.0 0.9 0.9 1.4 1.3 2.3 1.6 1.8 0.9 0.5 0.3 0.0 0.1 0.1 0.3 0.3 0.2 0.7 0.6 0.4 0.1 0.0 0.6 0.3
14.2 10.3 4.3 1.3 0.1 0.0 0.2 0.1 0.4 0.1 1.2 2.1 2.3 1.9 2.0 3.3 2.4 1.3 1.1 1.6 2.5 3.5 4.2 4.1 2.3 1.8 1.6 1.8 2.1 2.3 2.1 1.9 1.6 1.7 1.4 3.1 2.6 1.3 0.9 1.7 0.8 0.4 0.5 0.5 0.7 0.5 0.5 1.2 1.0 0.7 0.4 1.0 1.0 1.0
5.8 1.1 0.4 0.6 0.2 0.1 0.1 0.5 0.4 1.3 1.2 0.8 0.9 1.6 1.6 1.5 0.7 0.8 1.4 2.2 3.1 3.7 4.5 4.7 3.8 2.8 2.6 2.5 2.6 3.0 3.1 3.0 3.0 2.8 3.8 4.4 3.9 3.1 2.3 3.2 3.4 3.2 2.2 2.4 1.7 1.6 2.4 1.9 1.5 1.3 1.3 1.2 1.1 1.2
1.8 1.8 0.3 0.7 0.7 0.6 0.4 0.8 0.7 0.4 0.0 0.0 0.5 0.7 0.5 0.3 0.7 1.1 1.6 2.8 3.5 4.0 4.2 4.1 4.1 3.8 3.5 3.3 3.8 4.4 4.3 3.8 2.7 2.1 2.2 2.2 2.8 3.6 3.1 3.6 4.9 5.5 4.2 3.9 3.3 3.7 2.9 2.6 2.7 2.3 2.0 2.0 1.7 1.7
2.1 1.4 1.1 1.0 0.9 1.1 0.8 0.3 0.2 0.3 0.3 0.3 0.1 0.1 0.1 0.7 1.2 1.8 2.1 2.9 3.5 3.8 4.6 4.5 4.1 4.2 4.1 3.8 3.9 4.4 4.3 4.5 4.0 2.1 1.7 1.5 1.1 3.1 5.1 5.8 5.4 5.5 6.4 5.7 4.8 4.7 4.8 4.7 4.6 3.9 3.3 3.1 2.8 2.4
1.6 1.3 1.0 1.3 1.6 1.6 1.5 1.6 1.5 0.8 0.6 0.4 0.2 0.1 0.8 0.8 1.5 1.9 2.3 2.7 3.2 3.9 4.2 4.3 4.4 4.7 4.3 4.3 4.8 4.1 4.6 4.7 4.9 4.7 3.6 4.4 4.3 5.3 5.9 6.3 6.4 6.6 6.2 4.9 4.3 3.9 3.4 2.8 2.3 2.0 2.0 2.3 2.0 1.6
2.2 1.6 0.7 1.2 2.3 3.0 2.9 2.6 2.2 2.1 2.0 1.6 1.7 1.3 1.5 1.3 0.8 1.5 1.9 2.4 2.8 3.3 3.8 3.7 3.6 3.6 3.7 4.2 4.4 4.4 3.6 4.5 5.0 5.3 5.4 5.0 4.1 4.9 4.8 5.5 5.6 5.8 5.6 5.2 4.3 3.9 3.6 3.1 3.8 3.6 3.5 3.1 3.0 2.7
3.4 2.2 1.6 1.2 2.1 2.5 2.5 2.1 2.5 2.8 2.5 2.2 1.8 1.4 1.1 0.9 0.9 0.8 1.3 1.7 1.7 2.9 3.1 3.4 4.0 3.4 4.6 4.4 4.2 4.2 4.3 5.8 5.1 5.5 6.0 4.8 3.9 5.0 4.5 4.9 4.5 4.5 4.4 4.5 4.4 4.8 5.1 5.0 4.6 4.1 3.8 3.4 3.1 2.9